Santa Rosa — A8ZS7 — position and weather

sailwx.info

Track history (hours):
 
Tides and Currents Weather Stations Pressure Air Temp Water Temp Dewpoint Dewpoint Depression Visibility Wind Speed Wind Dir Waves Ship Positions

Santa Rosa

Last reported at 2014-Jul-25 00:00 UTC. Time now 2014-Jul-25 06:50 UTC.
Position N 15°18' E 112°48'.

Length 300 m; draft 10.8 m.

Type: Ship (hazmat cat D). MMSI: 636092266.

Wind from 210 at 15 knots

Barometer 1005.6 mb
Air temperature 30.0 ° C
Visibility: greater than 10.8 NM
Dewpoint 25.3 ° C
Water temperature 28.0 ° C

Date/timePositionNaut miles runAvg speedWind from/ knotsBaromVisibWave heightAir tempDewpointWater temp
2014-Jul-25 00:00N 15°18' E 112°48'8013.3 210 / 151005.610.8 30.025.328.0
2014-Jul-24 18:00N 16°36' E 113°06'34713.1 230 / 171004.610.8 29.025.6
2014-Jul-23 15:33N 22°19' E 114°06'4 0.2
2014-Jul-23 00:21N 22°21' E 114°03'911.4
2014-Jul-22 23:33N 22°24' E 113°53'5 0.4
2014-Jul-22 10:33N 22°29' E 113°52'10 9.6
2014-Jul-22 09:33N 22°20' E 113°49'1110.5
2014-Jul-22 08:33N 22°10' E 113°51'7 6.5
2014-Jul-22 07:31N 22°08' E 113°58'17317.3
2014-Jul-21 21:33N 22°53' E 116°58'1615.7
2014-Jul-21 20:33N 23°03' E 117°11'415.9
2014-Jul-21 20:18N 23°06' E 117°14'1415.9
2014-Jul-21 19:24N 23°15' E 117°26'1416.1
2014-Jul-21 18:33N 23°24' E 117°37'1616.4
2014-Jul-21 17:33N 23°34' E 117°52'1716.7
2014-Jul-21 16:33N 23°44' E 118°06'1717.0
2014-Jul-21 15:33N 23°55' E 118°21'5717.7
2014-Jul-21 12:21N 24°29' E 119°10'30416.5
2014-Jul-20 18:00N 28°42' E 122°18'3018.3 160 / 61007.510.8 0.529.425.428.0
2014-Jul-20 16:22N 29°10' E 122°30'1316.2
2014-Jul-20 15:33N 29°23' E 122°30'1716.7
2014-Jul-20 14:33N 29°39' E 122°26'1414.4
2014-Jul-20 13:33N 29°49' E 122°14'1010.0
2014-Jul-20 12:33N 29°47' E 122°03'2 2.3
2014-Jul-20 11:33N 29°46' E 122°00'0 0.0
2014-Jul-20 10:18N 29°46' E 122°00'0 0.0
2014-Jul-20 09:31N 29°46' E 122°00'0 0.0
2014-Jul-20 08:30N 29°46' E 122°00'0 0.0
2014-Jul-20 07:30N 29°46' E 122°00'0 0.0
2014-Jul-20 06:12N 29°46' E 122°00'0 0.0
2014-Jul-20 05:30N 29°46' E 122°00'0 0.0
2014-Jul-20 04:18N 29°46' E 122°00'0 0.0
2014-Jul-20 03:24N 29°46' E 122°00'0 0.0
2014-Jul-20 02:24N 29°46' E 122°00'0 0.0
2014-Jul-20 01:30N 29°46' E 122°00'0 0.0
2014-Jul-20 00:31N 29°46' E 122°00'0 0.0
2014-Jul-19 23:18N 29°46' E 122°00'0 0.0
2014-Jul-19 21:30N 29°46' E 122°00'0 0.0
2014-Jul-19 20:30N 29°46' E 122°00'2 1.9
2014-Jul-19 19:33N 29°47' E 122°02'1010.0
2014-Jul-19 18:33N 29°51' E 122°12'1010.1
2014-Jul-19 17:33N 29°44' E 122°22'1111.3
2014-Jul-19 16:34N 29°42' E 122°34'1817.5
2014-Jul-19 15:33N 29°51' E 122°52'1818.0
2014-Jul-19 14:32N 30°08' E 122°59'1818.9
2014-Jul-19 13:33N 30°24' E 122°48'1919.3
2014-Jul-19 12:33N 30°31' E 122°27'1515.3
2014-Jul-19 11:33N 30°34' E 122°10'6 6.0
2014-Jul-19 10:33N 30°37' E 122°04'0 0.0
2014-Jul-19 01:29N 30°37' E 122°04'0 0.0
2014-Jul-18 09:07N 30°37' E 122°04'2 4.0
2014-Jul-18 08:32N 30°36' E 122°06'1111.0
2014-Jul-18 07:33N 30°33' E 122°18'8 8.1
2014-Jul-18 06:34N 30°32' E 122°27'6 5.8
2014-Jul-18 05:33N 30°28' E 122°32'0 0.1
2014-Jul-18 04:30N 30°28' E 122°32'0 0.2
2014-Jul-18 03:24N 30°28' E 122°32'0 0.0
2014-Jul-18 02:30N 30°28' E 122°32'0 0.1
2014-Jul-18 01:30N 30°28' E 122°32'0 0.0
2014-Jul-18 00:24N 30°28' E 122°32'0 0.0
2014-Jul-17 23:30N 30°28' E 122°32'0 0.1
2014-Jul-17 22:30N 30°28' E 122°32'0 0.1
2014-Jul-17 21:18N 30°28' E 122°32'0 0.3
2014-Jul-17 20:30N 30°28' E 122°32'0 0.1
2014-Jul-17 19:18N 30°28' E 122°32'4 3.2
2014-Jul-17 18:00N 30°24' E 122°30'4 2.4 170 / 181009.7 0.1 1.025.424.922.0
2014-Jul-17 16:18N 30°28' E 122°32'0 0.0
2014-Jul-17 15:30N 30°28' E 122°32'0 0.2
2014-Jul-17 14:12N 30°28' E 122°32'0 0.2
2014-Jul-17 13:30N 30°28' E 122°32'0 0.0
2014-Jul-17 12:18N 30°28' E 122°32'0 0.0
2014-Jul-17 11:18N 30°28' E 122°32'0 0.0
2014-Jul-17 10:30N 30°28' E 122°32'0 0.0
2014-Jul-17 09:30N 30°28' E 122°32'0 0.2
2014-Jul-17 08:18N 30°28' E 122°32'0 0.2
2014-Jul-17 07:24N 30°28' E 122°32'0 0.1
2014-Jul-17 06:24N 30°28' E 122°32'410.1
2014-Jul-17 06:00N 30°24' E 122°30'4 5.9 160 / 121009.7 5.4 0.527.525.521.0
2014-Jul-17 05:18N 30°28' E 122°32'0 0.1
2014-Jul-17 04:30N 30°28' E 122°32'0 0.1
2014-Jul-17 02:24N 30°28' E 122°32'0 0.0
2014-Jul-16 23:30N 30°28' E 122°32'0 0.1
2014-Jul-16 22:18N 30°28' E 122°32'0 0.0
2014-Jul-16 21:30N 30°28' E 122°32'0 0.1
2014-Jul-16 20:18N 30°28' E 122°32'0 0.2
2014-Jul-16 19:06N 30°28' E 122°32'0 0.1
2014-Jul-16 18:12N 30°28' E 122°32'0 0.0
2014-Jul-16 15:06N 30°28' E 122°32'0 0.4
2014-Jul-16 14:24N 30°28' E 122°32'7 8.6
2014-Jul-16 13:33N 30°27' E 122°41'1716.7
2014-Jul-16 12:33N 30°22' E 122°59'1716.9
2014-Jul-16 11:33N 30°06' E 123°04'1817.9
2014-Jul-16 10:32N 29°48' E 123°01'1818.6
2014-Jul-16 09:33N 29°30' E 122°54'2618.7
2014-Jul-16 08:11N 29°07' E 122°42'27815.8
2014-Jul-15 14:32N 25°06' E 120°04'3316.5
2014-Jul-15 12:33N 24°47' E 119°35'1816.5
2014-Jul-15 11:29N 24°36' E 119°20'1515.6
2014-Jul-15 10:32N 24°27' E 119°07'1515.1
2014-Jul-15 09:33N 24°17' E 118°55'1514.5
2014-Jul-15 08:29N 24°08' E 118°41'1314.0
2014-Jul-15 07:33N 24°01' E 118°29'1312.7
2014-Jul-15 06:33N 23°52' E 118°19'1221.3
2014-Jul-15 06:00N 23°42' E 118°12'5 9.0 220 / 101010.010.8 0.530.024.924.0
2014-Jul-15 05:26N 23°43' E 118°07'  
Track history (hours):
 
Tides and Currents Weather Stations Pressure Air Temp Water Temp Dewpoint Dewpoint Depression Visibility Wind Speed Wind Dir Waves Ship Positions

Santa Rosa

Last reported at 2014-Jul-25 00:00 UTC. Time now 2014-Jul-25 06:50 UTC.
Position N 15°18' E 112°48'.

Length 300 m; draft 10.8 m.

Type: Ship (hazmat cat D). MMSI: 636092266.

Wind from 210 at 15 knots

Barometer 1005.6 mb
Air temperature 30.0 ° C
Visibility: greater than 10.8 NM
Dewpoint 25.3 ° C
Water temperature 28.0 ° C

Date/timePositionNaut miles runAvg speedWind from/ knotsBaromVisibWave heightAir tempDewpointWater temp
2014-Jul-25 00:00N 15°18' E 112°48'8013.3 210 / 151005.610.8 30.025.328.0
2014-Jul-24 18:00N 16°36' E 113°06'34713.1 230 / 171004.610.8 29.025.6
2014-Jul-23 15:33N 22°19' E 114°06'4 0.2
2014-Jul-23 00:21N 22°21' E 114°03'911.4
2014-Jul-22 23:33N 22°24' E 113°53'5 0.4
2014-Jul-22 10:33N 22°29' E 113°52'10 9.6
2014-Jul-22 09:33N 22°20' E 113°49'1110.5
2014-Jul-22 08:33N 22°10' E 113°51'7 6.5
2014-Jul-22 07:31N 22°08' E 113°58'17317.3
2014-Jul-21 21:33N 22°53' E 116°58'1615.7
2014-Jul-21 20:33N 23°03' E 117°11'415.9
2014-Jul-21 20:18N 23°06' E 117°14'1415.9
2014-Jul-21 19:24N 23°15' E 117°26'1416.1
2014-Jul-21 18:33N 23°24' E 117°37'1616.4
2014-Jul-21 17:33N 23°34' E 117°52'1716.7
2014-Jul-21 16:33N 23°44' E 118°06'1717.0
2014-Jul-21 15:33N 23°55' E 118°21'5717.7
2014-Jul-21 12:21N 24°29' E 119°10'30416.5
2014-Jul-20 18:00N 28°42' E 122°18'3018.3 160 / 61007.510.8 0.529.425.428.0
2014-Jul-20 16:22N 29°10' E 122°30'1316.2
2014-Jul-20 15:33N 29°23' E 122°30'1716.7
2014-Jul-20 14:33N 29°39' E 122°26'1414.4
2014-Jul-20 13:33N 29°49' E 122°14'1010.0
2014-Jul-20 12:33N 29°47' E 122°03'2 2.3
2014-Jul-20 11:33N 29°46' E 122°00'0 0.0
2014-Jul-20 10:18N 29°46' E 122°00'0 0.0
2014-Jul-20 09:31N 29°46' E 122°00'0 0.0
2014-Jul-20 08:30N 29°46' E 122°00'0 0.0
2014-Jul-20 07:30N 29°46' E 122°00'0 0.0
2014-Jul-20 06:12N 29°46' E 122°00'0 0.0
2014-Jul-20 05:30N 29°46' E 122°00'0 0.0
2014-Jul-20 04:18N 29°46' E 122°00'0 0.0
2014-Jul-20 03:24N 29°46' E 122°00'0 0.0
2014-Jul-20 02:24N 29°46' E 122°00'0 0.0
2014-Jul-20 01:30N 29°46' E 122°00'0 0.0
2014-Jul-20 00:31N 29°46' E 122°00'0 0.0
2014-Jul-19 23:18N 29°46' E 122°00'0 0.0
2014-Jul-19 21:30N 29°46' E 122°00'0 0.0
2014-Jul-19 20:30N 29°46' E 122°00'2 1.9
2014-Jul-19 19:33N 29°47' E 122°02'1010.0
2014-Jul-19 18:33N 29°51' E 122°12'1010.1
2014-Jul-19 17:33N 29°44' E 122°22'1111.3
2014-Jul-19 16:34N 29°42' E 122°34'1817.5
2014-Jul-19 15:33N 29°51' E 122°52'1818.0
2014-Jul-19 14:32N 30°08' E 122°59'1818.9
2014-Jul-19 13:33N 30°24' E 122°48'1919.3
2014-Jul-19 12:33N 30°31' E 122°27'1515.3
2014-Jul-19 11:33N 30°34' E 122°10'6 6.0
2014-Jul-19 10:33N 30°37' E 122°04'0 0.0
2014-Jul-19 01:29N 30°37' E 122°04'0 0.0
2014-Jul-18 09:07N 30°37' E 122°04'2 4.0
2014-Jul-18 08:32N 30°36' E 122°06'1111.0
2014-Jul-18 07:33N 30°33' E 122°18'8 8.1
2014-Jul-18 06:34N 30°32' E 122°27'6 5.8
2014-Jul-18 05:33N 30°28' E 122°32'0 0.1
2014-Jul-18 04:30N 30°28' E 122°32'0 0.2
2014-Jul-18 03:24N 30°28' E 122°32'0 0.0
2014-Jul-18 02:30N 30°28' E 122°32'0 0.1
2014-Jul-18 01:30N 30°28' E 122°32'0 0.0
2014-Jul-18 00:24N 30°28' E 122°32'0 0.0
2014-Jul-17 23:30N 30°28' E 122°32'0 0.1
2014-Jul-17 22:30N 30°28' E 122°32'0 0.1
2014-Jul-17 21:18N 30°28' E 122°32'0 0.3
2014-Jul-17 20:30N 30°28' E 122°32'0 0.1
2014-Jul-17 19:18N 30°28' E 122°32'4 3.2
2014-Jul-17 18:00N 30°24' E 122°30'4 2.4 170 / 181009.7 0.1 1.025.424.922.0
2014-Jul-17 16:18N 30°28' E 122°32'0 0.0
2014-Jul-17 15:30N 30°28' E 122°32'0 0.2
2014-Jul-17 14:12N 30°28' E 122°32'0 0.2
2014-Jul-17 13:30N 30°28' E 122°32'0 0.0
2014-Jul-17 12:18N 30°28' E 122°32'0 0.0
2014-Jul-17 11:18N 30°28' E 122°32'0 0.0
2014-Jul-17 10:30N 30°28' E 122°32'0 0.0
2014-Jul-17 09:30N 30°28' E 122°32'0 0.2
2014-Jul-17 08:18N 30°28' E 122°32'0 0.2
2014-Jul-17 07:24N 30°28' E 122°32'0 0.1
2014-Jul-17 06:24N 30°28' E 122°32'410.1
2014-Jul-17 06:00N 30°24' E 122°30'4 5.9 160 / 121009.7 5.4 0.527.525.521.0
2014-Jul-17 05:18N 30°28' E 122°32'0 0.1
2014-Jul-17 04:30N 30°28' E 122°32'0 0.1
2014-Jul-17 02:24N 30°28' E 122°32'0 0.0
2014-Jul-16 23:30N 30°28' E 122°32'0 0.1
2014-Jul-16 22:18N 30°28' E 122°32'0 0.0
2014-Jul-16 21:30N 30°28' E 122°32'0 0.1
2014-Jul-16 20:18N 30°28' E 122°32'0 0.2
2014-Jul-16 19:06N 30°28' E 122°32'0 0.1
2014-Jul-16 18:12N 30°28' E 122°32'0 0.0
2014-Jul-16 15:06N 30°28' E 122°32'0 0.4
2014-Jul-16 14:24N 30°28' E 122°32'7 8.6
2014-Jul-16 13:33N 30°27' E 122°41'1716.7
2014-Jul-16 12:33N 30°22' E 122°59'1716.9
2014-Jul-16 11:33N 30°06' E 123°04'1817.9
2014-Jul-16 10:32N 29°48' E 123°01'1818.6
2014-Jul-16 09:33N 29°30' E 122°54'2618.7
2014-Jul-16 08:11N 29°07' E 122°42'27815.8
2014-Jul-15 14:32N 25°06' E 120°04'3316.5
2014-Jul-15 12:33N 24°47' E 119°35'1816.5
2014-Jul-15 11:29N 24°36' E 119°20'1515.6
2014-Jul-15 10:32N 24°27' E 119°07'1515.1
2014-Jul-15 09:33N 24°17' E 118°55'1514.5
2014-Jul-15 08:29N 24°08' E 118°41'1314.0
2014-Jul-15 07:33N 24°01' E 118°29'1312.7
2014-Jul-15 06:33N 23°52' E 118°19'1221.3
2014-Jul-15 06:00N 23°42' E 118°12'5 9.0 220 / 101010.010.8 0.530.024.924.0
2014-Jul-15 05:26N 23°43' E 118°07'  

Dump ship's entire track history